User: anonymous   Login
Location: Unspecified
(0.0000°N, 0.0000°E)
Time: 16:32:25
(UTC+00:00)
Language:

SARAL - Orbit

View from above orbital plane
View from above orbital plane
View from above satellite
View from above satellite

Ground track
Ground track

The orbit data is extracted from the following two-line orbital elements,

1 39086U 13009A   17204.92496426 -.00000009 +00000-0 +12686-4 0  9992
2 39086 098.5407 031.9454 0002064 112.5716 247.5686 14.32006412230367
Epoch (UTC): 23 July 2017 22:11:56
Eccentricity: 0.0002064
inclination: 98.5407°
perigee height: 783 km
apogee height: 786 km
right ascension of ascending node: 31.9454°
argument of perigee: 112.5716°
revolutions per day: 14.32006412
mean anomaly at epoch: 247.5686°
orbit number at epoch: 23036

The dashed part of the orbit path shows where the satellite is in the earth's shadow,  

DLR